Regional Weather Roundup
Issued by NWS Grand Forks, ND

Home | Current Version | Previous Version | Text Only | Print | Product List | Glossary Off
Versions: 1 2 3 4 5 6 7 8 9 10 11 12 13 14 15 16 17 18 19 20 21 22 23 24 25 26 27 28 29 30 31 32 33 34 35 36 37 38 39 40 41 42 43 44 45 46 47 48 49 50

000
ASUS43 KFGF 052031
RWRFGF
PRAIRIE TO PINES  WEATHER ROUNDUP
NATIONAL WEATHER SERVICE EASTERN NORTH DAKOTA/GRAND FORKS ND
300 PM CDT THU MAY 05 2016

 **SATELLITE DATA USED TO AUGMENT SKY COVER AT AUTOMATED STATIONS**
 *****  WEATHER ACROSS EASTERN NORTH DAKOTA  *****

CITY           SKY/WX    TMP DP  RH WIND       PRES   REMARKS
GRAND FORKS    MOSUNNY   91  39  16 W15G28    29.76F
GRAND FRKS AFB SUNNY     91  37  15 W18G26    29.76F
DEVILS LAKE    SUNNY     87  42  20 SW14      29.80F
FARGO          SUNNY     90  37  15 SW21G29   29.81F
WAHPETON ARPT  CLEAR     86  32  14 SW15G21   29.85F
$$

 ***** WEATHER ACROSS CENTRAL AND WESTERN NORTH DAKOTA  *****

CITY           SKY/WX    TMP DP  RH WIND       PRES   REMARKS
BISMARCK       SUNNY     86  47  25 S7        29.84F
MINOT          SUNNY     93  37  14 VRB7      29.78S
JAMESTOWN      SUNNY     86  38  18 SW16      29.83F
MINOT AFB      SUNNY     90  34  13 SW8G18    29.75F
GARRISON         N/A     89  39  17 SW14      29.81F
WILLISTON      MOSUNNY   89  38  16 SW10      29.79F
DICKINSON      SUNNY     84  36  18 S8G16     29.84F
HETTINGER      SUNNY     83  38  20 SW8       29.89F
$$

 *****  OTHER AIRPORT OBSERVATIONS IN OUR AREA  *****

CITY           SKY/WX    TMP DP  RH WIND       PRES   REMARKS
WALHALLA       FAIR      91  39  16 W13       29.71F
GRAFTON AIRPOR FAIR      90  45  20 W14G25    29.75F
VALLEY CITY AR FAIR      86  37  17 W14G23    29.85F
CANDO          FAIR      90  37  15 SW14G21   29.79F
CAVALIER APRT  FAIR      91  37  15 SW14G24   29.71F
GWINNER        FAIR      88  37  16 SW17G24   29.86F
SHEYENNE NWR     N/A     89  40  17 SW14      29.95
ROLLA            N/A     88  36  15 SW21      29.78F
 ***** THE ABOVE OBSERVATIONS ARE NON NWS ARE NOT QUALITY
       CONTROLLED AND MAY MIS-REPORT RAIN FOR SNOW...
$$

  *****  WEATHER ACROSS NORTHERN MINNESOTA  *****

CITY           SKY/WX    TMP DP  RH WIND       PRES   REMARKS
FLAG ISLAND    SUNNY     81  43  26 NW10G17   29.68S
WARROAD        SUNNY     90  50  25 W16G26    29.70F
ROSEAU         SUNNY     91  36  14 W13G23    29.71F
HALLOCK        SUNNY     93  19   7 NW15G23   29.70F
THF RVR FALLS  SUNNY     90  36  14 W20G26    29.78F
BAUDETTE       CLOUDY    87  44  22 W17G26    29.73F
WASKISH        SUNNY     81  48  32 SW15      29.77F
CROOKSTON      SUNNY     90  37  15 W20       29.77F
STEPHEN NDAWN    N/A     91  41  17 SW15        N/A
GREENBUSH NDAW   N/A     91  36  14 W13         N/A
$$
  *****  WEATHER ACROSS CENTRAL AND WEST MINNESOTA  *****

CITY           SKY/WX    TMP DP  RH WIND       PRES   REMARKS
FOSSTON        SUNNY     88  37  16 SW18G29   29.80F
BEMIDJI        SUNNY     84  43  23 W14       29.82F
PARK RAPIDS    SUNNY     84  42  22 W15G23    29.87F
ELBOW LAKE     FAIR      85  42  22 SW10G22   29.89F
WADENA         SUNNY     82  46  28 SW15      29.88F
DETROIT LAKES  SUNNY     84  41  21 SW12G17   29.87F
MOORHEAD       SUNNY     90  36  14 W20       29.82F
FERGUS FALLS   SUNNY     86  45  23 W14       29.83F
MORRIS MN      SUNNY     84  45  24 SW10G16   29.90F
STAPLES        SUNNY     81  37  21 SW16G24   29.89F
$$
  *****  WEATHER ELSEWHERE ACROSS MINNESOTA  *****

CITY           SKY/WX    TMP DP  RH WIND       PRES   REMARKS
DULUTH         SUNNY     73  37  27 SW15      29.88F
INTRNTL FALLS  SUNNY     83  43  24 SW10G24   29.75F
ELY            SUNNY     77  36  22 SW14G20   29.81F
CLOQUET        SUNNY     73  34  23 SW10G20   29.88F
WHEATON        SUNNY     88  45  22 SW12G17   29.89F
BRAINERD       SUNNY     80  37  21 W14G23    29.90F
HIBBING          N/A     77  38  24 W8G20     29.83F
ALEXANDRIA     SUNNY     80  40  23 SW15      29.94F
SAINT CLOUD    SUNNY     77  33  20 SW14G21   29.94F
MINNEAPOLIS    MOSUNNY   73  31  21 SW12      29.98F
$$

  *****  WEATHER ACROSS SOUTH DAKOTA  *****

CITY           SKY/WX    TMP DP  RH WIND       PRES   REMARKS
SIOUX FALLS    SUNNY     74  50  42 S10       30.00F
BROOKINGS      SUNNY     79  42  26 S15       29.97F
WATERTOWN      SUNNY     82  42  24 SW16      29.94F
HURON          SUNNY     83  45  26 S15       29.93F
SISSETON         N/A     86  41  20 W14       29.88F
ABERDEEN       SUNNY     88  33  14 SW14G24   29.88F
MITCHELL       SUNNY     82  45  27 S9        29.96F
PIERRE         SUNNY     86  50  28 S15       29.87F
MOBRIDGE       SUNNY     87  42  20 S17       29.83F
RAPID CITY     MOSUNNY   83  47  28 SE10G17   29.91F
$$

  *****  SOME WEATHER IN NEARBY STATES *****

CITY           SKY/WX    TMP DP  RH WIND       PRES   REMARKS
GLASGOW MT     MOSUNNY   83  46  27 SW5       29.80S
GREAT FALLS MT PTSUNNY   76  38  25 SW7       29.88F
CHEYENNE WY    MOSUNNY   75  24  15 VRB6G18   30.11F
SCOTTSBLUFF NE PTSUNNY   82  38  20 SW3       29.99F
OMAHA NE       MOSUNNY   75  40  28 SE8       30.05F
DES MOINES IA  MOSUNNY   69  32  25 VRB6      30.06F
DAVENPORT IA   SUNNY     65  34  31 N6        30.04S
CHICAGO IL     MOSUNNY   60  42  51 E10       29.99S
EAU CLAIRE WI  SUNNY     66  31  27 SW8       29.98F
LA CROSSE WI   SUNNY     68  33  27 NW6       30.01F
$$

  *****  SOME NATIONAL WEATHER *****

CITY           SKY/WX    TMP DP  RH WIND       PRES   REMARKS
LA GUARDIA NY  CLOUDY    57  46  66 NE15      29.63F
RALEIGH NC     LGT RAIN  52  50  93 NW8       29.59F
ATLANTA GA     PTSUNNY   67  38  34 NW21G32   29.75F
NEW ORLEANS LA SUNNY     80  51  36 NW13      29.91F
OKLAHOMA CITY  MOSUNNY   80  41  24 N7        30.08F
ALBUQUERQUE NM MOSUNNY   81  26  13 SW6       30.11F
SALT LAKE CITY CLOUDY    82  31  15 SE8       29.85F
LOS ANGELES CA PTSUNNY   65  51  60 SW12      29.93S
BOISE ID       PTSUNNY   73  45  35 NW6       29.79F
SEATTLE WA     PTSUNNY   64  44  48 NE8       30.04F
$$

*** WEATHER ACROSS MANITOBA...SASKATCHEWAN AND ONTARIO ***
                ***ONTARIO***

CITY           SKY/WX    TMP DP  RH WIND       PRES   REMARKS
GERALDTON      PTSUNNY   64  32  29 S14G22    29.78F
THUNDER BAY    PTSUNNY   64  37  36 NE12      29.81F
SIOUX LOOKOUT  PTSUNNY   77  41  27 SW8       29.70S
TORONTO        PTSUNNY   59  48  67 S6        29.80F
BIG TROUT LK   SUNNY     59  36  41 NE12G20   29.75R
PICKLE LAKE    MOSUNNY   72  39  30 W7        29.69R
DRYDEN         SUNNY     79  41  25 SW15G23   29.71S
KENORA         PTSUNNY   79  48  34 S7        29.72F
$$
                *** MANITOBA***

CITY           SKY/WX    TMP DP  RH WIND       PRES   REMARKS
BRANDON        PTSUNNY   93  32  11 W14       29.71F
DAUPHIN        SUNNY     91  34  13 W21G28    29.63F
ISLAND LAKE    PTSUNNY   68  41  37 E14       29.69R
PILOT MOUND      N/A     90  32  12 W12G32      N/A
THE PAS        CLOUDY    72  43  35 N12       29.61S
THOMPSON       PTSUNNY   52  28  40 E8G18     29.76R
WINNIPEG       MOSUNNY   93  36  13 NW18      29.67F
LYNN LAKE      MOSUNNY   50  32  50 VRB2      29.77R
CHURCHILL      CLOUDY    27  19  74 E7        29.99R WCI  19
GILLAM         PTSUNNY   37  18  44 E12G18    29.90R
$$
                ***SASKATCHEWAN***

CITY           SKY/WX    TMP DP  RH WIND       PRES   REMARKS
ESTEVAN        PTSUNNY   91  37  15 S7G20     29.74F
KINDERSLEY     PTSUNNY   73  36  25 NW21G31   29.81R SMOKE
LLOYDMINSTER   CLOUDY    59  36  41 N20G31    29.93R
PRINCE ALBERT  PTSUNNY   79  41  25 N17G26    29.71S
REGINA         PTSUNNY   88  36  15 W17       29.70S
YORKTON        SUNNY     88  36  15 W20G25    29.67F
N. BATTLEFORD  SUNNY     73  39  29 N21       29.81R
LA RONGE       CLOUDY    64  39  39 NW17G25   29.81R
SASKATOON      PTSUNNY   82  39  21 N12G20    29.69S
SWIFT CURRENT  SUNNY     82  36  18 W21G31    29.80S
$$
NOTE: THESE ARE AUTOMATED STATIONS WITH LIMITED QUALITY CONTROL
      "FAIR" INDICATES FEW OR NO CLOUDS BELOW 12,000 FEET WITH NO
      SIGNIFICANT WEATHER AND/OR OBSTRUCTIONS TO VISIBILITY.
      SKY/WX - SKY CONDITION AND SIGNIFICANT WEATHER.
      TMP - AIR TEMPERATURE.    DP   - DEWPOINT TEMPERATURE.
      RH  - RELATIVE HUMIDITY.  PRES - PRESSURE.
      HX  - HEAT INDEX.         WCI  - WIND CHILL INDEX.
$



USA.gov is the U.S. government's official web portal to all federal, state and local government web resources and services.